Home > Weather > Cork > Past weeks

Flag for Ireland Past Weather in Cork, Ireland — Yesterday and Last 2 Weeks

Now
57 °F

Fog.


Feels Like: 57 °F
Forecast: 55 / 69 °F
Wind: 3 mph from Southeast

Location: Cork Airport

Current Time: Aug 27, 2016 at 7:40:25 AM

Latest Report: Aug 27, 2016 at 7:00 AM


Visibility: 1 mi

Pressure: 30.02 "Hg

Humidity: 97%

Dew Point: 56 °F

Location of CorkLocation

Past Weather in Cork — Graph

°F

Cork Temperature Yesterday

Maximum temperature yesterday: 65 °F (at 1:00 PM)
Minimum temperature yesterday: 51 °F (at 1:00 AM)
Average temperature yesterday: 57 °F

High & Low Weather Summary for the Past Weeks

 TemperatureHumidityPressure
High69 °F (Aug 22, 3:00 PM)98% (Aug 12, 11:00 PM)30.33 "Hg (Aug 12, 11:00 PM)
Low49 °F (Aug 25, 7:00 AM)60% (Aug 13, 3:00 PM)29.26 "Hg (Aug 19, 4:00 PM)
Average59 °F88%29.99 "Hg
* Reported Aug 12 6:00 AM — Aug 27 6:00 AM, Cork, Weather by CustomWeather, © 2016

Note: Actual official high and low records may vary slightly from our data, if they occured in-between our weather recording intervals... More about our weather records

Advertising

Cork Weather History for the Previous 24 Hours

Scroll right to see more
 ConditionsComfort  
Time TempWeatherWind HumidityBarometerVisibility
6:00 AM
Sat, Aug 27
57 °FFog.3 mph98%30.03 "Hg2 mi
5:00 AM57 °FFog.3 mph97%30.03 "Hg1 mi
4:00 AM56 °FFog.2 mph98%30.04 "Hg1 mi
3:00 AM56 °FFog.2 mph98%30.06 "Hg1 mi
2:00 AM55 °FFog.2 mph97%30.07 "Hg0 mi
1:00 AM53 °FFog.2 mph97%30.07 "Hg0 mi
12:00 AM53 °FFog.1 mph97%30.08 "Hg1 mi
11:00 PM
Fri, Aug 26
53 °FFog.3 mph97%30.09 "Hg6 mi
10:00 PM53 °FFog.2 mph97%30.09 "Hg2 mi
9:00 PM55 °FPassing clouds.2 mph94%30.09 "Hg43 mi
8:00 PM57 °FOvercast.2 mph80%30.07 "Hg43 mi
7:00 PM59 °FScattered clouds.3 mph75%30.07 "Hg37 mi
6:00 PM61 °FPartly sunny.6 mph75%30.07 "Hg37 mi
5:00 PM61 °FOvercast.6 mph69%30.07 "Hg37 mi
4:00 PM63 °FOvercast.7 mph71%30.05 "Hg37 mi
3:00 PM64 °FPartly sunny.6 mph61%30.05 "Hg37 mi
2:00 PM64 °FPartly sunny.6 mph62%30.05 "Hg37 mi
1:00 PM65 °FPartly sunny.8 mph60%30.04 "Hg37 mi
12:00 PM63 °FPartly sunny.7 mph63%30.04 "Hg31 mi
11:00 AM61 °FScattered clouds.7 mph73%30.03 "Hg25 mi
10:00 AM60 °FPartly sunny.6 mph87%30.03 "Hg25 mi
9:00 AM57 °FPartly sunny.6 mph96%30.02 "Hg19 mi
8:00 AM57 °FLow clouds.7 mph97%30.00 "Hg16 mi
7:00 AM55 °FSprinkles. Low clouds.3 mph98%29.99 "Hg12 mi
Weather by CustomWeather, © 2016

See weather overviewHow to use our weather pages